This demonstration page uses our WeatherBlox Daily Observations layout. Learn more.

38.88101, -77.10428

Hourly Observations for August 5, 2016

Temp ( °F °C ) Dew Point ( °F °C ) Humidity (%) Winds ( mph kmh ) Pressure ( in mb ) Visibility ( mi km ) Precip ( " mm )
12:52 am 00:52 Partly Cloudy 74 23.3 67 19.4 79 79 S 8 13 30.09 1019 10 16.09344 0 0
1:52 am 01:52 Mostly Cloudy 74 23.3 66 18.9 76 76 S 8 13 30.06 1018 10 16.09344 0 0
2:52 am 02:52 Mostly Cloudy 74 23.3 66 18.9 76 76 SSE 7 11 30.06 1018 10 16.09344 0 0
3:52 am 03:52 Mostly Cloudy 74 23.3 66 18.9 76 76 SSW 9 15 30.06 1018 10 16.09344 0 0
4:52 am 04:52 Cloudy 74 23.3 66 18.9 76 76 S 5 7 30.06 1018 10 16.09344 0 0
5:52 am 05:52 Mostly Cloudy 74 23.3 68 20 82 82 S 3 6 30.06 1018 10 16.09344 0 0
6:52 am 06:52 Cloudy 74 23.3 67 19.4 79 79 Calm 30.06 1018 10 16.09344 0 0
7:52 am 07:52 Cloudy 76 24.4 68 20 77 77 S 7 11 30.06 1018 10 16.09344 0 0
8:52 am 08:52 Cloudy 76 24.4 68 20 77 77 S 7 11 30.06 1018 10 16.09344 0.001 0.001
9:52 am 09:52 Cloudy 77 25 69 20.6 77 77 S 9 15 30.06 1018 10 16.09344 0 0
10:52 am 10:52 Cloudy 80 26.7 68 20 67 67 S 9 15 30.03 1017 10 16.09344 0 0
11:52 am 11:52 Cloudy 81 27.2 66 18.9 61 61 S 8 13 30.03 1017 10 16.09344 0 0
12:52 pm 12:52 Cloudy 82 27.8 69 20.6 65 65 S 12 19 30 1016 10 16.09344 0 0
1:52 pm 13:52 Cloudy 82 27.8 69 20.6 65 65 SSW 9 15 30 1016 10 16.09344 0 0
2:11 pm 14:11 Cloudy 81 27.2 69 20.6 67 67 SSW 15 24 30 1016 10 16.09344 0 0
2:21 pm 14:21 Cloudy 83 28.3 70 21.1 65 65 SSW 14 22 30 1016 10 16.09344 0 0
2:52 pm 14:52 Cloudy 80 26.7 70 21.1 71 71 S 13 20 30 1016 10 16.09344 0 0
3:47 pm 15:47 Cloudy 79 26 70 21 74 74 S 10 17 29.97 1015 10 16.09344 0 0
3:52 pm 15:52 Cloudy 79 26.1 70 21.1 74 74 S 10 17 29.97 1015 10 16.09344 0 0
4:52 pm 16:52 Cloudy 80 26.7 71 21.7 74 74 S 10 17 29.97 1015 10 16.09344 0 0
5:52 pm 17:52 Mostly Cloudy 81 27.2 71 21.7 72 72 S 12 19 29.94 1014 10 16.09344 0 0
6:00 pm 18:00 Mostly Cloudy 81 27 72 22 74 74 S 12 19 29.94 1014 10 16.09344 0 0
6:26 pm 18:26 Mostly Cloudy 80 26.7 71 21.7 74 74 S 13 20 29.94 1014 10 16.09344 0 0
6:52 pm 18:52 Mostly Cloudy 80 26.7 71 21.7 74 74 S 10 17 29.91 1013 10 16.09344 0 0
7:33 pm 19:33 Mostly Cloudy 80 26.7 71 21.7 74 74 S 10 17 29.91 1013 10 16.09344 0 0
7:48 pm 19:48 Mostly Cloudy 81 27 72 22 74 74 S 8 13 29.91 1013 10 16.09344 0 0
7:52 pm 19:52 Mostly Cloudy 80 26.7 72 22.2 76 76 S 8 13 29.91 1013 10 16.09344 0 0
8:52 pm 20:52 Mostly Cloudy 79 26.1 72 22.2 79 79 S 8 13 29.91 1013 10 16.09344 0 0
9:52 pm 21:52 Cloudy 78 25.6 73 22.8 85 85 SSW 5 7 29.91 1013 10 16.09344 0 0
10:52 pm 22:52 Mostly Cloudy 78 25.6 74 23.3 87 87 S 7 11 29.91 1013 10 16.09344 0 0
11:52 pm 23:52 Cloudy 78 25.6 73 22.8 85 85 S 9 15 29.91 1013 10 16.09344 0 0

Powered by AerisWeather